| time (UTC) | temp C | wind direction | speed KPH | gust KPH | rain 1hr cm | rain 24hr cm | rain mn cm | humidity % | barometer mb |
| 20260906131535 | 22 | 0 | 0.0 | 0.0 | 0.00 | 1.83 | 0.03 | 99 | 1013.2 |
| 20260906130036 | 22 | 0 | 0.0 | 0.0 | 0.00 | 1.83 | 0.03 | 99 | 1013.1 |
| 20260906124536 | 21 | 0 | 0.0 | 0.0 | 0.00 | 1.83 | 0.03 | 99 | 1013.0 |
| 20260906123043 | 21 | 0 | 0.0 | 0.0 | 0.00 | 1.83 | 0.03 | 99 | 1012.7 |
| 20260906121544 | 21 | 0 | 0.0 | 0.0 | 0.00 | 1.83 | 0.03 | 99 | 1012.4 |
| 20260906120032 | 21 | 0 | 0.0 | 0.0 | 0.00 | 1.83 | 0.03 | 98 | 1012.4 |
| 20260906114538 | 21 | 0 | 0.0 | 1.6 | 0.00 | 1.83 | 0.03 | 98 | 1012.5 |
| 20260906113037 | 21 | 0 | 0.0 | 1.6 | 0.00 | 1.83 | 0.03 | 98 | 1012.4 |
| 20260906111533 | 21 | 0 | 0.0 | 0.0 | 0.00 | 1.83 | 0.03 | 98 | 1012.3 |
| 20260906110034 | 21 | 0 | 0.0 | 0.0 | 0.00 | 1.83 | 0.03 | 98 | 1012.3 |
| 20260906104536 | 21 | 0 | 0.0 | 1.6 | 0.00 | 1.83 | 0.03 | 98 | 1012.3 |
| 20260906103036 | 21 | 0 | 0.0 | 0.0 | 0.00 | 1.83 | 0.03 | 98 | 1012.1 |
| 20260906101535 | 21 | 0 | 0.0 | 0.0 | 0.00 | 1.83 | 0.03 | 98 | 1011.9 |
| 20260906100040 | 21 | 0 | 0.0 | 1.6 | 0.00 | 1.83 | 0.03 | 98 | 1011.9 |
| 20260906094535 | 21 | 0 | 0.0 | 0.0 | 0.00 | 1.83 | 0.03 | 98 | 1012.2 |
| 20260906093048 | 21 | 0 | 0.0 | 0.0 | 0.00 | 1.83 | 0.03 | 98 | 1012.0 |
| 20260906091534 | 21 | 92 | 0.0 | 1.6 | 0.00 | 1.83 | 0.03 | 98 | 1011.9 |
| 20260906090036 | 21 | 0 | 0.0 | 1.6 | 0.00 | 1.83 | 0.03 | 98 | 1011.8 |
| 20260906084533 | 21 | 0 | 0.0 | 0.0 | 0.00 | 1.83 | 0.03 | 98 | 1011.9 |
| 20260906083033 | 21 | 0 | 0.0 | 1.6 | 0.00 | 1.83 | 0.03 | 98 | 1011.9 |
| 20260906081549 | 21 | 0 | 0.0 | 0.0 | 0.00 | 1.83 | 0.03 | 98 | 1011.9 |
| 20260906080036 | 21 | 0 | 0.0 | 0.0 | 0.00 | 1.83 | 0.03 | 98 | 1011.9 |
| 20260906074536 | 21 | 0 | 0.0 | 0.0 | 0.00 | 1.83 | 0.03 | 98 | 1011.9 |
| 20260906073047 | 21 | 0 | 0.0 | 0.0 | 0.00 | 1.83 | 0.03 | 98 | 1011.9 |
| 20260906071536 | 21 | 0 | 0.0 | 1.6 | 0.00 | 1.83 | 0.03 | 98 | 1011.9 |
| 20260906070039 | 21 | 0 | 0.0 | 3.2 | 0.00 | 1.83 | 0.03 | 98 | 1011.9 |
| 20260906064534 | 21 | 0 | 0.0 | 0.0 | 0.00 | 1.83 | 0.03 | 98 | 1012.1 |
| 20260906063035 | 21 | 0 | 0.0 | 0.0 | 0.00 | 1.83 | 0.03 | 98 | 1012.3 |
| 20260906061534 | 21 | 0 | 0.0 | 1.6 | 0.03 | 1.83 | 0.03 | 98 | 1012.2 |
| 20260906060035 | 21 | 0 | 0.0 | 3.2 | 0.03 | 1.83 | 0.03 | 98 | 1012.3 |
| 20260906054533 | 21 | 0 | 0.0 | 0.0 | 0.03 | 1.83 | 0.03 | 98 | 1012.5 |
| 20260906053038 | 21 | 0 | 0.0 | 0.0 | 0.03 | 1.83 | 0.03 | 98 | 1012.7 |
| 20260906051534 | 21 | 0 | 0.0 | 0.0 | 0.00 | 1.80 | 0.00 | 98 | 1012.8 |
| 20260906050050 | 21 | 0 | 0.0 | 0.0 | 0.00 | 1.80 | 0.00 | 98 | 1013.0 |
| 20260906044535 | 21 | 0 | 0.0 | 1.6 | 0.00 | 1.80 | 0.00 | 98 | 1013.1 |
| 20260906043042 | 21 | 0 | 0.0 | 0.0 | 0.00 | 1.80 | 0.00 | 97 | 1012.8 |
| 20260906041535 | 21 | 0 | 0.0 | 0.0 | 0.00 | 1.80 | 0.00 | 97 | 1012.5 |
| 20260906040043 | 21 | 0 | 0.0 | 0.0 | 0.00 | 1.80 | 0.00 | 98 | 1012.4 |
| 20260906034535 | 21 | 34 | 0.0 | 3.2 | 0.00 | 1.80 | 1.80 | 98 | 1012.3 |
| 20260906033032 | 21 | 34 | 1.6 | 4.8 | 0.00 | 1.80 | 1.80 | 97 | 1012.2 |
| 20260906031537 | 21 | 0 | 0.0 | 3.2 | 0.00 | 1.80 | 1.80 | 97 | 1012.4 |
| 20260906030033 | 21 | 0 | 0.0 | 0.0 | 0.00 | 1.80 | 1.80 | 97 | 1012.6 |
| 20260906024536 | 21 | 0 | 0.0 | 1.6 | 0.00 | 1.80 | 1.80 | 97 | 1012.9 |
| 20260906023049 | 21 | 0 | 0.0 | 0.0 | 0.00 | 1.80 | 1.80 | 97 | 1012.9 |
| 20260906021535 | 21 | 0 | 0.0 | 0.0 | 0.00 | 1.80 | 1.80 | 97 | 1013.2 |
| 20260906020036 | 21 | 0 | 0.0 | 1.6 | 0.00 | 1.80 | 1.80 | 96 | 1013.1 |
| 20260906014543 | 21 | 0 | 0.0 | 1.6 | 0.03 | 1.80 | 1.80 | 96 | 1013.0 |
| 20260906013034 | 20 | 0 | 0.0 | 3.2 | 0.28 | 1.80 | 1.80 | 95 | 1013.1 |
| 20260906011544 | 20 | 5 | 0.0 | 4.8 | 1.30 | 1.80 | 1.80 | 95 | 1012.8 |
| 20260906010036 | 20 | 0 | 0.0 | 6.4 | 1.80 | 1.80 | 1.80 | 94 | 1012.2 |
| 20260906004535 | 20 | 193 | 1.6 | 6.4 | 1.78 | 1.78 | 1.78 | 94 | 1012.8 |
| 20260906003036 | 20 | 211 | 0.0 | 9.7 | 1.47 | 1.47 | 1.47 | 91 | 1012.6 |
| 20260906001534 | 22 | 38 | 8.0 | 35.4 | 0.46 | 0.46 | 0.46 | 81 | 1014.1 |
| 20260906000038 | 30 | 109 | 1.6 | 6.4 | 0.00 | 0.00 | 0.00 | 62 | 1013.0 |
| 20260905234545 | 31 | 65 | 0.0 | 6.4 | 0.00 | 0.00 | 0.00 | 70 | 1011.6 |
| 20260905233034 | 31 | 194 | 3.2 | 9.7 | 0.00 | 0.00 | 0.00 | 68 | 1010.3 |
| 20260905231535 | 32 | 227 | 1.6 | 9.7 | 0.00 | 0.00 | 0.00 | 66 | 1010.5 |
| 20260905230042 | 32 | 185 | 3.2 | 9.7 | 0.00 | 0.00 | 0.00 | 66 | 1010.8 |
| 20260905224536 | 32 | 208 | 3.2 | 11.3 | 0.00 | 0.00 | 0.00 | 65 | 1010.6 |
| 20260905223036 | 33 | 207 | 1.6 | 6.4 | 0.00 | 0.00 | 0.00 | 63 | 1010.6 |
| 20260905221533 | 33 | 219 | 1.6 | 9.7 | 0.00 | 0.00 | 0.00 | 59 | 1010.7 |
| 20260905220035 | 36 | 183 | 3.2 | 6.4 | 0.00 | 0.00 | 0.00 | 50 | 1010.3 |
| 20260905214538 | 37 | 0 | 0.0 | 4.8 | 0.00 | 0.00 | 0.00 | 45 | 1010.1 |
| 20260905213037 | 37 | 0 | 0.0 | 4.8 | 0.00 | 0.00 | 0.00 | 42 | 1010.1 |
| 20260905211535 | 37 | 200 | 1.6 | 3.2 | 0.00 | 0.00 | 0.00 | 41 | 1010.2 |
| 20260905210034 | 37 | 0 | 0.0 | 3.2 | 0.00 | 0.00 | 0.00 | 43 | 1010.5 |
| 20260905204533 | 37 | 0 | 0.0 | 4.8 | 0.00 | 0.00 | 0.00 | 42 | 1010.6 |
| 20260905203031 | 37 | 271 | 0.0 | 8.0 | 0.00 | 0.00 | 0.00 | 43 | 1010.8 |
| 20260905201538 | 37 | 5 | 0.0 | 4.8 | 0.00 | 0.00 | 0.00 | 43 | 1011.0 |
| 20260905200046 | 37 | 190 | 1.6 | 6.4 | 0.00 | 0.00 | 0.00 | 44 | 1011.2 |
| 20260905194533 | 36 | 197 | 0.0 | 6.4 | 0.00 | 0.00 | 0.00 | 47 | 1011.6 |
| 20260905193035 | 37 | 273 | 1.6 | 6.4 | 0.00 | 0.00 | 0.00 | 46 | 1011.8 |
| 20260905191538 | 36 | 340 | 1.6 | 4.8 | 0.00 | 0.00 | 0.00 | 48 | 1012.0 |
| 20260905190045 | 36 | 159 | 1.6 | 4.8 | 0.00 | 0.00 | 0.00 | 48 | 1011.8 |
| 20260905184550 | 35 | 0 | 0.0 | 4.8 | 0.00 | 0.00 | 0.00 | 50 | 1012.0 |
| 20260905183042 | 35 | 0 | 0.0 | 4.8 | 0.00 | 0.00 | 0.00 | 52 | 1012.3 |
| 20260905181540 | 35 | 0 | 0.0 | 4.8 | 0.00 | 0.00 | 0.00 | 48 | 1012.8 |
| 20260905180034 | 35 | 252 | 0.0 | 4.8 | 0.00 | 0.00 | 0.00 | 53 | 1012.7 |
| 20260905174535 | 34 | 355 | 1.6 | 4.8 | 0.00 | 0.00 | 0.00 | 51 | 1012.8 |
| 20260905173035 | 34 | 0 | 0.0 | 8.0 | 0.00 | 0.00 | 0.00 | 53 | 1013.1 |
| 20260905171538 | 33 | 182 | 0.0 | 8.0 | 0.00 | 0.00 | 0.00 | 57 | 1013.3 |
| 20260905170032 | 33 | 325 | 1.6 | 4.8 | 0.00 | 0.00 | 0.00 | 57 | 1013.5 |
| 20260905164538 | 32 | 0 | 1.6 | 9.7 | 0.00 | 0.00 | 0.00 | 57 | 1013.7 |
| 20260905163035 | 32 | 0 | 0.0 | 4.8 | 0.00 | 0.00 | 0.00 | 59 | 1013.9 |
| 20260905161536 | 32 | 56 | 1.6 | 6.4 | 0.00 | 0.00 | 0.00 | 59 | 1014.1 |
| 20260905160036 | 32 | 0 | 0.0 | 6.4 | 0.00 | 0.00 | 0.00 | 61 | 1014.1 |
| 20260905154537 | 31 | 0 | 1.6 | 6.4 | 0.00 | 0.00 | 0.00 | 62 | 1014.1 |
| 20260905153050 | 31 | 333 | 1.6 | 9.7 | 0.00 | 0.00 | 0.00 | 66 | 1014.2 |
| 20260905151539 | 30 | 0 | 0.0 | 0.0 | 0.00 | 0.00 | 0.00 | 68 | 1014.3 |
| 20260905150039 | 30 | 0 | 0.0 | 0.0 | 0.00 | 0.00 | 0.00 | 71 | 1014.4 |
| 20260905144534 | 29 | 0 | 0.0 | 6.4 | 0.00 | 0.00 | 0.00 | 73 | 1014.4 |
| 20260905143038 | 28 | 0 | 0.0 | 0.0 | 0.00 | 0.00 | 0.00 | 75 | 1014.6 |
| 20260905141534 | 28 | 0 | 0.0 | 0.0 | 0.00 | 0.00 | 0.00 | 81 | 1014.6 |
| 20260905140036 | 27 | 0 | 0.0 | 0.0 | 0.00 | 0.00 | 0.00 | 83 | 1014.5 |
| 20260905134534 | 26 | 0 | 0.0 | 0.0 | 0.00 | 0.00 | 0.00 | 87 | 1014.7 |
| 20260905133035 | 25 | 0 | 0.0 | 0.0 | 0.00 | 0.00 | 0.00 | 93 | 1014.6 |